Retour au catalogue

IRIDIUM 33 DEB

ActifPO
NORAD 36483·DEBRIS·🇺🇸 United States

Lancé Sep 14, 1997 depuis Baikonur Cosmodrome

Loading…

Prochains Passages (prochaines 24 heures)

TLE

FraisSource: Space-Track

Époque: Sep 11, 2026, 10:05 UTC

1 36483U 97051VZ  26254.42033527  .00000907  00000-0  24574-3 0  9992
2 36483  86.3766 295.7071 0007082 313.2576  46.8035 14.46672415690873

Suivez IRIDIUM 33 DEB en temps réel avec AllMySat

Download on the App Store